Flag for U.S.A. Weather past 2 weeks in Charleston, West Virginia, U.S.A.

Now
49 °F

Overcast.


Feels Like: 45 °F
Forecast: 21 / 38 °F
Wind: 9 mph from Northwest

Location: Yeager Airport

Current Time: Jan 29, 2015 at 7:34:28 PM

Latest Report: Jan 29, 2015 at 6:54 PM


Visibility: 10 mi

Pressure: 29.95 "Hg

Humidity: 66%

Dew point: 38 °F

Location of CharlestonLocation

Historic Weather in Charleston — Graph

°F

Charleston temperature yesterday

Maximum temperature yesterday: 32 °F (at 4:54 PM)
Minimum temperature yesterday: 17 °F (at 6:54 AM)
Average temperature yesterday: 24 °F

Past Weeks' High & Low Weather Summary

 TemperatureHumidityPressure
High58 °F (Jan 17, 2:54 PM)97% (Jan 23, 5:54 PM)30.42 "Hg (Jan 23, 5:54 PM)
Low16 °F (Jan 27, 6:54 AM)30% (Jan 17, 2:54 PM)29.62 "Hg (Jan 26, 5:54 AM)
Average35 °F72%30.04 "Hg
* Reported Jan 14 5:54 PM — Jan 29 5:54 PM, Charleston, Weather by CustomWeather, © 2014

Note: Actual official high and low records may vary slightly from our data, if they occured in-between our weather recording intervals... More about our weather records

Advertising

Charleston weather history for previous 24 hours

 ConditionsComfort  
Time TempWeatherWind HumidityBarometerVisibility
5:54 PM
Jan 29
50 °FOvercast.No wind57%29.90 "Hg10 mi
4:54 PM49 °FOvercast.9 mph59%29.88 "Hg10 mi
3:54 PM49 °FOvercast.10 mph59%29.88 "Hg10 mi
2:54 PM50 °FOvercast.14 mph57%29.88 "Hg10 mi
1:54 PM50 °FPartly sunny.17 mph59%29.89 "Hg10 mi
12:54 PM44 °FMostly cloudy.12 mph68%29.93 "Hg10 mi
11:54 AM40 °FLight rain. Mostly cloudy.5 mph80%29.97 "Hg9 mi
10:54 AM40 °FLight rain. Mostly cloudy.7 mph63%29.99 "Hg6 mi
9:54 AM40 °FBroken clouds.6 mph43%30.00 "Hg10 mi
8:54 AM34 °FBroken clouds.6 mph54%30.03 "Hg10 mi
7:54 AM26 °FMore clouds than sun.3 mph74%30.07 "Hg10 mi
6:54 AM23 °FPassing clouds.3 mph85%30.09 "Hg9 mi
5:54 AM24 °FClear.No wind81%30.11 "Hg10 mi
4:54 AM22 °FClear.No wind89%30.14 "Hg10 mi
3:54 AM23 °FPassing clouds.No wind85%30.17 "Hg10 mi
2:54 AM22 °FPassing clouds.No wind85%30.20 "Hg10 mi
1:54 AM22 °FPassing clouds.No wind85%30.21 "Hg10 mi
12:54 AM22 °FClear.No wind85%30.24 "Hg10 mi
11:54 PM
Jan 28
22 °FClear.No wind82%30.26 "Hg10 mi
10:54 PM23 °FClear.No wind81%30.30 "Hg10 mi
9:54 PM23 °FClear.3 mph78%30.31 "Hg10 mi
8:54 PM25 °FClear.No wind69%30.32 "Hg10 mi
7:54 PM27 °FClear.5 mph58%30.32 "Hg10 mi
Weather by CustomWeather, © 2014

See weather overviewHow to use our weather pages